When you browse on this site, cookies collect data to enhance your experience and personalize the content and advertising you see.
Visit our Privacy Policy to learn more. By continuing to use the site, you agree to this use of cookies and data.

Hourly Weather Winchester

Today, 14 August, Friday

Time Temperature Precipitation Wind Pressure Humidity
00:00 +18°C° 0 mm 3 mps 754 mmHg 94%
01:00 +18°C° 0.2 mm 3 mps 754 mmHg 95%
02:00 +18°C° 0.2 mm 3 mps 753 mmHg 95%
03:00 +18°C° 0.2 mm 3 mps 753 mmHg 95%
04:00 +18°C° 0.1 mm 3 mps 753 mmHg 95%
05:00 +18°C° 0.1 mm 3 mps 754 mmHg 95%
06:00 +18°C° 0 mm 3 mps 754 mmHg 92%
07:00 +19°C° 0 mm 3 mps 754 mmHg 90%
08:00 +19°C° 0 mm 3 mps 754 mmHg 88%
09:00 +20°C° 0 mm 3 mps 754 mmHg 85%
10:00 +20°C° 0 mm 3 mps 754 mmHg 83%
11:00 +21°C° 0 mm 3 mps 754 mmHg 80%
12:00 +21°C° 0 mm 2 mps 754 mmHg 77%
13:00 +23°C° 0 mm 2 mps 754 mmHg 76%
14:00 +23°C° 0 mm 2 mps 754 mmHg 75%
15:00 +23°C° 0 mm 2 mps 754 mmHg 75%
16:00 +23°C° 0 mm 2 mps 754 mmHg 76%
17:00 +23°C° 0 mm 2 mps 754 mmHg 78%
18:00 +23°C° 0 mm 2 mps 754 mmHg 80%
19:00 +21°C° 0 mm 2 mps 754 mmHg 81%
20:00 +21°C° 0 mm 2 mps 754 mmHg 82%
21:00 +21°C° 0 mm 2 mps 754 mmHg 84%
22:00 +20°C° 0.1 mm 3 mps 754 mmHg 87%
23:00 +19°C° 0.1 mm 3 mps 755 mmHg 90%

Tomorrow, 15 August, Saturday

Time Temperature Precipitation Wind Pressure Humidity
00:00 +19°C° 0.1 mm 3 mps 755 mmHg 93%
01:00 +18°C° 0.2 mm 3 mps 755 mmHg 93%
02:00 +18°C° 0.2 mm 3 mps 754 mmHg 93%
03:00 +18°C° 0.2 mm 3 mps 754 mmHg 93%
04:00 +18°C° 0.3 mm 3 mps 754 mmHg 93%
05:00 +18°C° 0.3 mm 3 mps 754 mmHg 94%
06:00 +18°C° 0.3 mm 3 mps 755 mmHg 94%
07:00 +18°C° 0.1 mm 3 mps 755 mmHg 93%
08:00 +18°C° 0.1 mm 3 mps 755 mmHg 92%
09:00 +19°C° 0.1 mm 3 mps 755 mmHg 92%
10:00 +19°C° 0.1 mm 3 mps 755 mmHg 91%
11:00 +20°C° 0.1 mm 2 mps 755 mmHg 89%
12:00 +20°C° 0.1 mm 2 mps 755 mmHg 88%
13:00 +21°C° 0.2 mm 2 mps 755 mmHg 87%
14:00 +21°C° 0.2 mm 2 mps 755 mmHg 85%
15:00 +23°C° 0.2 mm 2 mps 755 mmHg 84%
16:00 +21°C° 0.7 mm 2 mps 754 mmHg 85%
17:00 +21°C° 0.7 mm 2 mps 754 mmHg 85%
18:00 +21°C° 0.7 mm 3 mps 754 mmHg 86%
19:00 +20°C° 0.2 mm 3 mps 754 mmHg 89%
20:00 +19°C° 0.2 mm 3 mps 754 mmHg 92%
21:00 +19°C° 0.2 mm 3 mps 754 mmHg 95%
22:00 +18°C° 0 mm 3 mps 754 mmHg 95%
23:00 +18°C° 0 mm 2 mps 754 mmHg 96%

Day after tomorrow, 16 August, Sunday

Time Temperature Precipitation Wind Pressure Humidity
00:00 +18°C° 0 mm 2 mps 753 mmHg 96%
01:00 +18°C° 0 mm 2 mps 753 mmHg 96%
02:00 +19°C° 0 mm 1 mps 753 mmHg 97%
03:00 +19°C° 0 mm 1 mps 753 mmHg 97%
04:00 +17°C° 0 mm 0 mps 753 mmHg 96%
05:00 +17°C° 0 mm 0 mps 753 mmHg 96%
06:00 +17°C° 0 mm 0 mps 752 mmHg 96%
07:00 +18°C° 0.2 mm 0 mps 752 mmHg 93%
08:00 +21°C° 0.2 mm 1 mps 752 mmHg 89%
09:00 +22°C° 0.2 mm 1 mps 752 mmHg 86%
10:00 +23°C° 0.5 mm 1 mps 752 mmHg 78%
11:00 +24°C° 0.5 mm 2 mps 752 mmHg 69%
12:00 +26°C° 0.5 mm 2 mps 752 mmHg 60%
13:00 +25°C° 0.9 mm 2 mps 751 mmHg 61%
14:00 +25°C° 0.9 mm 2 mps 751 mmHg 63%
15:00 +24°C° 0.9 mm 2 mps 751 mmHg 64%
16:00 +24°C° 0.8 mm 2 mps 751 mmHg 68%
17:00 +23°C° 0.8 mm 1 mps 750 mmHg 73%
18:00 +22°C° 0.8 mm 1 mps 750 mmHg 78%
19:00 +21°C° 0.6 mm 1 mps 750 mmHg 82%
20:00 +19°C° 0.6 mm 2 mps 750 mmHg 86%
21:00 +18°C° 0.6 mm 2 mps 750 mmHg 90%
22:00 +17°C° 0 mm 2 mps 750 mmHg 89%
23:00 +17°C° 0 mm 2 mps 750 mmHg 89%

17 August, Monday

Time Temperature Precipitation Wind Pressure Humidity
00:00 +17°C° 0 mm 2 mps 750 mmHg 88%
01:00 +17°C° 0 mm 2 mps 750 mmHg 89%
02:00 +17°C° 0 mm 2 mps 750 mmHg 89%
03:00 +16°C° 0 mm 2 mps 750 mmHg 90%
04:00 +16°C° 0 mm 2 mps 750 mmHg 90%
05:00 +16°C° 0 mm 2 mps 750 mmHg 91%
06:00 +16°C° 0 mm 2 mps 750 mmHg 92%
07:00 +17°C° 0 mm 2 mps 750 mmHg 84%
08:00 +19°C° 0 mm 3 mps 750 mmHg 77%
09:00 +20°C° 0 mm 3 mps 751 mmHg 69%
10:00 +21°C° 0.1 mm 4 mps 751 mmHg 67%
11:00 +21°C° 0.1 mm 5 mps 750 mmHg 66%
12:00 +22°C° 0.1 mm 5 mps 750 mmHg 64%
13:00 +21°C° 0.3 mm 5 mps 750 mmHg 68%
14:00 +21°C° 0.3 mm 6 mps 750 mmHg 72%
15:00 +20°C° 0.3 mm 6 mps 750 mmHg 77%
16:00 +20°C° 0.2 mm 6 mps 750 mmHg 78%
17:00 +20°C° 0.2 mm 5 mps 751 mmHg 79%
18:00 +20°C° 0.2 mm 5 mps 751 mmHg 81%
19:00 +19°C° 0.1 mm 5 mps 751 mmHg 85%
20:00 +18°C° 0.1 mm 4 mps 751 mmHg 89%
21:00 +17°C° 0.1 mm 4 mps 751 mmHg 93%
22:00 +15°C° 0 mm 4 mps 751 mmHg 94%
23:00 +15°C° 0 mm 4 mps 751 mmHg 94%

18 August, Tuesday

Time Temperature Precipitation Wind Pressure Humidity
00:00 +15°C° 0 mm 4 mps 752 mmHg 95%
01:00 +15°C° 0 mm 4 mps 752 mmHg 95%
02:00 +14°C° 0 mm 4 mps 752 mmHg 95%
03:00 +14°C° 0 mm 4 mps 752 mmHg 95%
04:00 +14°C° 0 mm 4 mps 752 mmHg 94%
05:00 +14°C° 0 mm 4 mps 752 mmHg 94%
06:00 +14°C° 0 mm 4 mps 752 mmHg 93%
07:00 +17°C° 0 mm 4 mps 752 mmHg 88%
08:00 +17°C° 0 mm 5 mps 752 mmHg 82%
09:00 +19°C° 0 mm 5 mps 752 mmHg 76%
10:00 +20°C° 0.1 mm 5 mps 752 mmHg 73%
11:00 +21°C° 0.1 mm 6 mps 752 mmHg 69%
12:00 +22°C° 0.1 mm 6 mps 752 mmHg 66%
13:00 +22°C° 0.2 mm 6 mps 752 mmHg 66%
14:00 +22°C° 0.2 mm 6 mps 752 mmHg 66%
15:00 +22°C° 0.2 mm 7 mps 752 mmHg 66%
16:00 +22°C° 0.1 mm 6 mps 752 mmHg 68%
17:00 +21°C° 0.1 mm 5 mps 752 mmHg 70%
18:00 +20°C° 0.1 mm 5 mps 752 mmHg 71%
19:00 +19°C° 0 mm 4 mps 752 mmHg 77%
20:00 +17°C° 0 mm 3 mps 753 mmHg 83%
21:00 +16°C° 0 mm 3 mps 753 mmHg 89%
22:00 +15°C° 0 mm 2 mps 753 mmHg 91%
23:00 +15°C° 0 mm 2 mps 753 mmHg 92%

19 August, Wednesday

Time Temperature Precipitation Wind Pressure Humidity
00:00 +15°C° 0 mm 2 mps 753 mmHg 93%
01:00 +14°C° 0 mm 1 mps 752 mmHg 93%
02:00 +14°C° 0 mm 1 mps 752 mmHg 93%
03:00 +14°C° 0 mm 1 mps 752 mmHg 93%
04:00 +14°C° 0 mm 1 mps 751 mmHg 92%
05:00 +15°C° 0 mm 1 mps 751 mmHg 91%
06:00 +15°C° 0 mm 1 mps 751 mmHg 90%
07:00 +16°C° 0 mm 1 mps 751 mmHg 85%
08:00 +18°C° 0 mm 2 mps 751 mmHg 80%
09:00 +19°C° 0 mm 2 mps 751 mmHg 75%
10:00 +20°C° 0 mm 3 mps 751 mmHg 71%
11:00 +21°C° 0 mm 3 mps 751 mmHg 66%
12:00 +22°C° 0 mm 4 mps 750 mmHg 62%
13:00 +22°C° 0 mm 4 mps 750 mmHg 61%
14:00 +23°C° 0 mm 4 mps 749 mmHg 60%
15:00 +23°C° 0 mm 4 mps 749 mmHg 59%
16:00 +22°C° 0 mm 4 mps 748 mmHg 63%
17:00 +21°C° 0 mm 4 mps 747 mmHg 68%
18:00 +20°C° 0 mm 4 mps 747 mmHg 73%
19:00 +19°C° 0.1 mm 4 mps 746 mmHg 77%
20:00 +19°C° 0.1 mm 4 mps 746 mmHg 81%
21:00 +18°C° 0.1 mm 4 mps 745 mmHg 85%
22:00 +17°C° 0.2 mm 5 mps 744 mmHg 85%
23:00 +17°C° 0.2 mm 5 mps 744 mmHg 86%
Show more